星链-37585(STARLINK-37585)

导读

STARLINK-37585是美国太空探索技术公司(SpaceX)星链星座的成员卫星,对应NORAD编号69421,属于低轨道通信卫星,核心任务是为全球范围提供高速低延迟的卫星互联网服务,重点覆盖传统地面网络难以抵达的偏远区域、海洋及空域场景。 作为SpaceX推进全球互联网覆盖布局的组成部分,该卫星运行于高度数百公里的近地轨道,与其他星链卫星组网协作。星链项目整体已实现大规模部署,此类卫星在提供通信便利的同时,也被业内广泛关注其对太空轨道资源占用、天文观测干扰等潜在影响。

基本信息
目录编号:
69421
目录名称:
STARLINK-37585
国际标识:
2026-126B
轨道中心:
EARTH
卫星名称:
星链-37585
卫星全名:
星链-37585(STARLINK-37585)
卫星状态:
在轨 (已飞行89 天)
发射日期:
2026-06-07 UTC
国别 :
美国 (US)
星等 :
--
轨道信息
数据来源 国际轨道数据
星历时间: 2026-09-04T00:17:37+0800
13小时前
查看轨道信息
半长轴: 6843.676km
偏心率: 0.0001869
轨道倾角: 97.285°
近地点辐角 90.997°
升交点赤经 108.107°
平近点角 269.149°
近地点: 464.259km
远地点: 466.819km
周期: 93.906分钟
每日圈数: 15.334466
详细信息
固有亮度:
5
最大亮度:
2.5
卫星平台:
Starlink V1.0
覆盖范围:
全球
运营商:
太空探索技术公司
运营商所在国:
美国
制造商(研发单位):
太空探索技术公司
制造商所在国:
美国
使用方式:
暂无
卫星简介
Starlink 计划是 SpaceX 推出的全球卫星互联网项目,通过发射低轨道卫星,为全球尤其是偏远地区提供高速、低延迟的互联网服务。自 2019 年起,Starlink 已部署数千颗卫星,旨在缩小全球数字鸿沟,推动互联网普及。该项目还为军事、航空等行业提供通信支持,带来广泛经济效益。
2D轨道图
3D轨道图
轨道高度分析图
轨道倾角分析图
轨道综合分析图
查看轨道综合分析图
交会数据列表
事件ID 空间交会对象 最接近时刻(TCA) 交会距离 交会风险概率(CRP) 交会风险指数(CRI) 操作
CDM_260830-020606-418406-942121
2026-08-30T
02:06:48+0000
1.916 km
极远距离
2.758114E-6 低风险 0.44
CDM_260904-195506-932106-942121
OBJECT B (69321)
2026-09-04T
19:55:57+0000
1.997 km
极远距离
2.291841E-6 低风险 0.42
CDM_260903-061505-198806-942121
2026-09-03T
06:15:26+0000
2.457 km
极远距离
1.78795E-6 低风险 0.4
CDM_260904-085505-901206-942121
2026-09-04T
08:55:45+0000
2.965 km
极远距离
1.31684E-6 低风险 0.37
CDM_260905-032704-944506-942121
2026-09-05T
03:27:38+0000
2.610 km
极远距离
9.655761E-7 极低风险 0.35